Printer-friendly version

IAU Minor Planet Center

Minor Planet Center

MPEC 2007-M38 : 2007 ML13

The following Minor Planet Electronic Circular may be linked-to from your own Web pages, but must not otherwise be redistributed electronically.


Read MPEC 2007-M37 Read MPEC 2007-M39


M.P.E.C. 2007-M38                                Issued 2007 June 24, 15:14 UT

     The Minor Planet Electronic Circulars contain information on unusual
         minor planets and routine data on comets.  They are published
   on behalf of Commission 20 of the International Astronomical Union by the
          Minor Planet Center, Smithsonian Astrophysical Observatory,
                          Cambridge, MA 02138, U.S.A.

             Prepared using the Tamkin Foundation Computer Network

                              MPC@CFA.HARVARD.EDU
          URL http://www.cfa.harvard.edu/iau/mpc.html  ISSN 1523-6714

                                   2007 ML13

Observations:
     K07M13L* C2007 06 22.32831 16 54 10.40 +39 32 02.9          19.4 V EM038703
     K07M13L  C2007 06 22.33598 16 54 09.82 +39 31 46.2          20.4 V EM038703
     K07M13L  C2007 06 22.35086 16 54 09.00 +39 31 15.8          20.3 V EM038703
     K07M13L  C2007 06 22.36157 16 54 08.35 +39 30 54.2          19.3 V EM038703
     K07M13L  C2007 06 22.39669 16 54 06.37 +39 29 45.1          19.6 V EM038703
     K07M13L  C2007 06 22.40332 16 54 06.12 +39 29 32.6          20.1 V EM038703
     K07M13L  C2007 06 22.41334 16 54 05.50 +39 29 11.5          19.5 V EM038703
     K07M13L  C2007 06 22.41672 16 54 05.32 +39 29 04.4          19.8 V EM038703
     K07M13L  C2007 06 23.24654 16 53 28.60 +39 01 34.7          19.7 R EM038850
     K07M13L 5C2007 06 23.29699 16 53 26.81 +38 59 54.3          19.8 R EM038673
     K07M13L 5C2007 06 23.30139 16 53 26.61 +38 59 46.3                 EM038673
     K07M13L  C2007 06 23.30145 16 53 25.60 +38 59 42.3          19.5 R EM038850
     K07M13L 5C2007 06 23.30683 16 53 26.24 +38 59 34.5                 EM038673
     K07M13L  C2007 06 23.31168 16 53 25.76 +38 59 25.2          20.0 V EM038703
     K07M13L  C2007 06 23.31363 16 53 25.54 +38 59 21.0          20.0 V EM038703
     K07M13L  C2007 06 23.31438 16 53 24.92 +38 59 14.9          20.1 R EM038850
     K07M13L 5C2007 06 23.31447 16 53 25.86 +38 59 19.2                 EM038673
     K07M13L  C2007 06 23.31558 16 53 25.47 +38 59 16.6          20.1 V EM038703
     K07M13L  C2007 06 23.31752 16 53 25.44 +38 59 13.5          20.0 V EM038703
     K07M13L  C2007 06 23.33755 16 53 23.70 +38 58 25.7          19.9 R EM038850
     K07M13L  C2007 06 23.88459 16 53 01.50 +38 39 41.5          19.6 V EM038A55
     K07M13L  C2007 06 23.89218 16 53 01.12 +38 39 26.1          19.4 V EM038A55
     K07M13L  C2007 06 23.89976 16 53 00.68 +38 39 10.7          19.4 V EM038A55
     K07M13L  C2007 06 23.90695 16 53 00.22 +38 38 52.6          19.7 V EM038B03
     K07M13L  C2007 06 23.91925 16 52 59.56 +38 38 26.8          19.9 V EM038B03
     K07M13L IC2007 06 23.92943 16 52 59.07 +38 38 05.1          19.6 V EM038B03
     K07M13L  C2007 06 23.94064 16 52 58.43 +38 37 42.1          20.0 V EM038B03
     K07M13L 5C2007 06 24.26030 16 52 45.21 +38 26 37.4          19.4 R EM038673
     K07M13L 5C2007 06 24.26528 16 52 44.93 +38 26 26.4                 EM038673
     K07M13L 5C2007 06 24.27049 16 52 44.66 +38 26 15.5                 EM038673
     K07M13L 5C2007 06 24.27465 16 52 44.44 +38 26 06.9                 EM038673
     K07M13L  C2007 06 24.33440 16 52 40.62 +38 23 55.9          20.0 R EM038H36
     K07M13L  C2007 06 24.35198 16 52 39.72 +38 23 15.1          19.6 R EM038H36
     K07M13L  C2007 06 24.36958 16 52 39.09 +38 22 37.4          20.0 R EM038H36
     K07M13L  C2007 06 24.57392 16 52 32.27 +38 15 34.5          20.0 R EM038D35
     K07M13L  C2007 06 24.57593 16 52 32.22 +38 15 30.2          19.5 R EM038D35
     K07M13L  C2007 06 24.57794 16 52 32.07 +38 15 25.9          20.9 R EM038D35

Observer details:
673 Table Mountain Observatory, Wrightwood.  Observer J. Young.  0.61-m f/16
    Cassegrain + CCD.
703 Catalina Sky Survey.  Observers R. E. Hill, A. R. Gibbs, A. Boattini.
    Measurers E. C. Beshore, A. Boattini, G. J. Garradd, A. R. Gibbs,
    A. D. Grauer, R. E. Hill, R. A. Kowalski, S. M. Larson, R. H. McNaught.
    0.68-m Schmidt + CCD.
850 Cordell-Lorenz Observatory, Sewanee.  Observer D. T. Durig.  0.30-m f/3
    Schmidt-Cassegrain + 765x510 CCD.
A55 Osservatorio Astronomico Vallemare di Borbona.  Observer V. S. Casulli.
    0.40-m f/4.5 Newtonian reflector + CCD.
B03 Alter Satzberg, Vienna.  Observer M. Pietschnig.  0.35-m f/7
    Schmidt-Cassegrain + CCD.
D35 Lulin Observatory.  Observers Q.-z. Ye, H.-C. Lin, C.-S. Lin, C.-Y. Shih.
    Measurer Q.-z. Ye.  0.41-m f/8.8 Ritchey-Chretien + 2Kx2K CCD + f/6.25
    focal reducer.
H36 Sandlot Observatory, Scranton.  Observer G. Hug.  0.30-m
    Schmidt-Cassegrain + CCD.

Orbital elements:
2007 ML13                                                Earth MOID = 0.1944 AU
Epoch 2007 Apr. 10.0 TT = JDT 2454200.5                 MPC
M 303.25666              (2000.0)            P               Q
n   0.66172804     Peri.  139.89217     +0.11435743     +0.96882691
a   1.3042165      Node   135.36606     -0.97267236     +0.15418847
e   0.0881190      Incl.   18.22805     -0.20206646     -0.19390803
P   1.49           H   20.2           G   0.15           U   8
Residuals in seconds of arc
070622 703  1.6+  0.9+    070623 703  0.1+  0.3+    070623 B03  0.1-  0.0
070622 703  0.0   0.6-    070623 703  1.2-  0.1+    070624 673  0.3-  0.2+
070622 703  0.3+  1.3-    070623 850  0.1-  0.1+    070624 673  0.4-  0.3-
070622 703  0.2-  1.4-    070623 673  0.3+  0.5+    070624 673  0.2-  0.2-
070622 703  0.6-  0.2+    070623 703  0.8-  0.2-    070624 673  0.1-  0.0
070622 703  0.7+  1.1+    070623 703  0.2+  0.7+    070624 H36  0.4-  1.3+
070622 703  0.2-  0.4+    070623 850  0.2-  0.4-    070624 H36  0.5-  1.1-
070622 703  0.2-  0.1+    070623 A55  0.3-  0.3-    070624 H36  2.3+  0.2-
070623 850  0.4-  1.0-    070623 A55  0.1+  0.0     070624 D35  0.1-  0.1+
070623 673  0.2-  0.2-    070623 A55  0.3-  0.4+    070624 D35  0.6+  0.1+
070623 673  0.4+  0.8+    070623 B03  0.0   0.1-    070624 D35  0.1+  0.0
070623 850  0.2-  0.5+    070623 B03  0.1-  0.2-
070623 673  0.3-  0.1+    070623 B03  0.5+  0.6-

Ephemeris:
2007 ML13                a,e,i = 1.30, 0.09, 18                  q = 1.1893
Date    TT    R. A. (2000) Decl.     Delta      r     Elong.  Phase     V
2007 06 19    16 56.91   +41 12.2    0.332    1.192   114.3    51.0    20.1
2007 06 29    16 49.79   +35 23.2    0.311    1.190   116.8    49.7    19.9
2007 07 09    16 46.64   +27 09.1    0.295    1.189   119.4    48.1    19.7
2007 07 19    16 48.54   +16 42.7    0.287    1.191   121.4    46.7    19.6
2007 07 29    16 56.09   +04 56.4    0.290    1.195   121.9    46.2    19.7
2007 08 08    17 09.15   -06 47.8    0.308    1.200   120.5    46.8    19.8
2007 08 18    17 27.53   -17 14.5    0.339    1.207   117.4    48.1    20.1
2007 08 28    17 50.87   -25 41.7    0.382    1.215   113.7    49.6    20.4
2007 09 07    18 18.43   -32 02.8    0.433    1.225   109.8    50.7    20.7
2007 09 17    18 49.47   -36 28.4    0.491    1.235   106.1    51.4    21.0
2007 09 27    19 22.95   -39 14.4    0.554    1.247   102.7    51.7    21.3
2007 10 07    19 57.65   -40 36.2    0.619    1.259    99.5    51.5    21.6
2007 10 17    20 32.55   -40 47.2    0.686    1.272    96.5    51.1    21.8
2007 10 27    21 06.78   -39 59.6    0.753    1.285    93.7    50.5    22.0

Gareth V. Williams           (C) Copyright 2007 MPC           M.P.E.C. 2007-M38

Read MPEC 2007-M37 Read MPEC 2007-M39


Our Web policy. Index to the CBAT/MPC/ICQ pages.


Valid HTML 4.01!